886  
ASUS44 KMAF 201610  
RWRMAF  
MIDLAND AREA WEATHER ROUNDUP  
NATIONAL WEATHER SERVICE MIDLAND TX  
1100 AM CDT FRI SEP 20 2019  
   
..IN SOUTHWEST TEXAS AND SOUTHEAST NEW MEXICO
 
 
 
CITY SKY/WX TMP DP RH WIND PRES REMARKS
 
ALPINE MOSUNNY 79 58 48 SW6 30.12R  
ANDREWS FAIR 82 66 56 S16G24 29.99S  
ARTESIA MOSUNNY 72 68 88 W5 30.03  
BIG SPRING SUNNY 82 68 63 S20 30.00R  
CARLSBAD CLOUDY 73 62 68 NW6 30.00R  
DRYDEN N/A 83 70 64 SE15G22 29.96R  
FORT STOCKTON MOSUNNY 80 67 64 SE17G28 29.99R  
GUAD PASS MOSUNNY 68 61 78 NE10 30.13R  
HOBBS SUNNY 73 64 73 E7 30.03R  
LAMESA NOT AVBL  
MARFA SUNNY 76 58 53 CALM 30.11R  
MIDLAND AIRPK SUNNY 84 69 59 S20 29.98S  
MIDLAND INTL SUNNY 86 69 56 S21 29.97S  
ODESSA SUNNY 83 67 58 S20 29.99R  
PECOS PTSUNNY 78 60 55 CALM 29.97R  
PRESIDIO FAIR 85 60 41 SE8 29.97S  
SEMINOLE MOSUNNY 79 64 60 S10G16 30.04R  
SNYDER SUNNY 81 71 70 S16G22 29.98R  
WINK PTSUNNY 83 62 49 S17 29.95S  

   
..OTHER STATIONS IN TEXAS
 
 
 
CITY SKY/WX TMP DP RH WIND PRES REMARKS
 
ABILENE SUNNY 84 70 62 S17G23 29.96S  
AMARILLO PTSUNNY 68 62 81 SE12 30.02S  
AUSTIN MOSUNNY 89 73 59 S14 29.98S  
BROWNSVILLE FAIR 89 75 63 SE17 29.93S  
CORPUS CHRISTI PTSUNNY 92 75 57 S17G25 29.94S HX 103  
DALLAS FTW PTSUNNY 84 73 69 S15 29.96R  
DEL RIO CLOUDY 82 73 74 SE13 29.93R  
EL PASO MOSUNNY 80 57 45 S8 30.01R  
HOUSTON INT PTSUNNY 87 76 69 S9 30.01R  
LUBBOCK PTSUNNY 75 66 73 NE8 30.02F  
SAN ANGELO MOSUNNY 86 70 58 S13G23 29.97R  
SAN ANTONIO PTSUNNY 86 69 56 SE15 29.99S  
WACO MOSUNNY 88 71 57 S16 29.98S  
WICHITA FALLS DRIZZLE 72 69 90 SE12 29.98S FOG  

   
..OTHER LOCATIONS IN NEW MEXICO
 
 
 
CITY SKY/WX TMP DP RH WIND PRES REMARKS
 
ALAMOGORDO MOSUNNY 72 63 73 CALM 30.05  
ALBUQUERQUE MOSUNNY 70 51 51 VRB6 30.09R  
CANNON AFB PTSUNNY 69 65 89 SE9 30.06  
CLOVIS PTSUNNY 67 65 93 SE10 30.06S  
HOLLOMAN AFB PTSUNNY 77 62 58 S5 30.05R  
ROSWELL SUNNY 73 63 70 S7 30.02R  
RUIDOSO MOSUNNY 64 57 77 CALM 30.20  
SANTA FE SUNNY 67 52 58 SE10 30.14R  
TRUTH OR CONSE SUNNY 73 55 53 CALM 30.05R  
TUCUMCARI MOSUNNY 70 64 81 VRB6 30.01F  

 
 
 
CLICK HERE TO GO TO PREVIOUS BULLETINS.

The Nexlab TX Page
The Nexlab NM Page Main Text Page